x

New London Ledge Ct - Ledge Light Weather Station (ldlc3) Weather Station

7:40 - Wed 4th Mar 2015 All times are EST. -5 hours from GMT.

  • Wind
    22mph, 25mph gusts
  • Luft Temp 35°f
  • Sea Pressure 1006.9mb
  • New London Ledge Ct - Ledge Light Weather Station
  • New London Ledge Ct - Ledge Light Weather Station

More Historic Weather Station data

Upgrade to MSW Pro to gain access to the past 30 days of data for over 8000 Wavebouys and Weather Stations around the globe.

Join Pro

Comparision Forecast

View Surf forecast
   
Mi 03/04 7:40 22 25 mph 1006.9mb 35f
7:25 21 25 mph 1006.3mb 35f
7:10 22 25 mph 1006.1mb 35f
6:55 20 22 mph 1006.2mb 34f
6:40 20 24 mph 1006.5mb 34f
6:25 21 23 mph 1006.7mb 34f
6:10 22 24 mph 1006.7mb 34f
5:55 21 23 mph 1006.2mb 34f
5:40 22 25 mph 1006.2mb 34f
5:25 18 21 mph 1006mb 34f
5:10 22 24 mph 1006.1mb 34f
4:55 22 23 mph 1005.7mb 34f
4:40 21 23 mph 1005.2mb 34f
4:25 20 21 mph 1005.3mb 34f
4:10 22 25 mph 1005.6mb 35f
3:55 21 23 mph 1005.8mb 35f
3:40 17 21 mph 1005.7mb 35f
3:25 16 17 mph 1005.7mb 34f
3:10 16 17 mph 1006.2mb 34f
2:55 14 15 mph 1006mb 34f
2:40 16 18 mph 1006.2mb 35f
2:25 15 17 mph 1006.1mb 34f
2:10 14 16 mph 1006.3mb 34f
1:55 14 16 mph 1006.8mb 34f
1:40 10 13 mph 1007.1mb 34f
1:25 9 13 mph 1007.4mb 35f
1:10 11 14 mph 1007.6mb 34f
12:55 10
mph
1007.7mb 34f
12:40 8 9 mph 1007.9mb 34f
12:25 5 8 mph 1008.5mb 35f
12:10 3 6 mph 1009mb 34f
Di 03/03 6:55 9 10 mph 1019.7mb 28f
6:40 10 11 mph 1020mb 27f
6:25 10 13 mph 1020.8mb 27f
6:10 10 11 mph 1021.1mb 27f
5:55 13 15 mph 1021.2mb 26f
5:40 16 20 mph 1021.5mb 28f
5:25 14 15 mph 1022.1mb 29f
5:10 13 15 mph 1022.7mb 28f
4:55 10 14 mph 1022.8mb 28f
4:40 10 13 mph 1022.9mb 28f
4:25 13 16 mph 1023.2mb 28f
4:10 14 16 mph 1023.4mb 28f
3:55 14 16 mph 1023.9mb 28f
3:40 15 17 mph 1024.6mb 28f
3:25 8 10 mph 1025.4mb 28f
3:10 10 13 mph 1025.5mb 27f
2:55 13 15 mph 1025.7mb 27f
2:40 10 11 mph 1025.7mb 27f
2:25 7 8 mph 1025.4mb 26f
2:10 6 7 mph 1025.7mb 27f
1:55 5 7 mph 1025.9mb 27f
1:40 5 7 mph 1026.2mb 26f
1:25 6 7 mph 1026.6mb 27f
1:10 5 7 mph 1026.9mb 26f
12:55 5 6 mph 1027.2mb 27f
12:40 5 7 mph 1027.6mb 27f
12:25 6 7 mph 1028mb 27f
12:10 6 7 mph 1028.4mb 27f
11:55 6 7 mph 1028.5mb 27f
11:40 6 7 mph 1028.6mb 27f
11:25 6 8 mph 1028.7mb 27f
11:10 6 7 mph 1028.7mb 28f
10:55 3 5 mph 1028.8mb 29f
10:40  -  2 mph 1028.9mb 31f
10:25 2 5 mph 1029.1mb 29f
10:10 3 6 mph 1029.4mb 29f
9:55 6 7 mph 1029.6mb 28f
9:40 8 9 mph 1029.4mb 27f
9:25 10 13 mph 1029.5mb 27f
9:10 10 11 mph 1029.6mb 27f
8:55 7 8 mph 1029.9mb 26f
8:40 7 8 mph 1029.8mb 26f
8:25 9 10 mph 1029.6mb 25f
8:10 9 13 mph 1029.4mb 25f
7:55 10 11 mph 1029.3mb 24f
7:40 9 10 mph 1029.4mb 22f
7:25 10 13 mph 1029.4mb 22f
7:10 9 11 mph 1029mb 22f
6:55 9 11 mph 1028.8mb 21f
6:40 9 11 mph 1028.6mb 21f
6:25 9 10 mph 1028.4mb 21f
6:10 9 13 mph 1028.2mb 21f
5:55 7 8 mph 1028.3mb 21f
5:40 7 8 mph 1028.1mb 21f
5:25 7 8 mph 1028mb 22f
5:10 9 10 mph 1028mb 22f
4:55 9 11 mph 1027.8mb 22f
4:40 9 11 mph 1027.6mb 22f
4:25 10 11 mph 1027.6mb 23f
4:10 13 14 mph 1027.2mb 23f
3:55 11 14 mph 1026.8mb 23f
3:40 9 10 mph 1026.7mb 23f
3:25 11 13 mph 1026.6mb 24f
3:10 8 10 mph 1026.6mb 24f
2:55 10 13 mph 1026.5mb 24f
2:40 9 10 mph 1026.6mb 24f
2:25 9 11 mph 1026.6mb 24f
2:10 10 13 mph 1026.6mb 25f
1:55 10 13 mph 1026.6mb 25f
1:40 10 13 mph 1026.6mb 25f
1:25 8 11 mph 1026.6mb 26f
1:10 10 13 mph 1026.3mb 26f
12:55 13 16 mph 1026.1mb 26f
12:40 15 20 mph 1025.8mb 26f
12:25 14 16 mph 1025.8mb 27f
12:10 18 22 mph 1025.5mb 27f
Mo 03/02 6:55 21 29 mph 1020.7mb 32f
6:40 15 18 mph 1020.5mb 33f
6:25 15 20 mph 1020.1mb 33f
6:10 18 24 mph 1019.7mb 34f
5:55 23 31 mph 1019.1mb 34f
5:40 21 26 mph 1018.8mb 34f
5:25 24 36 mph 1018.1mb 35f
5:10 22 31 mph 1017.9mb 35f
4:55 23 29 mph 1017.7mb 36f
4:40 22 29 mph 1017.6mb 36f
4:25 20 24 mph 1017.5mb 36f
4:10 23 32 mph 1017.3mb 36f
3:55 24 31 mph 1017.2mb 36f
3:40 23 29 mph 1017.2mb 36f
3:25 22 30 mph 1017.1mb 36f
3:10 25 31 mph 1016.8mb 35f
2:55 23 32 mph 1016.6mb 36f
2:40 23 34 mph 1016.3mb 36f
2:25 22 33 mph 1016.3mb 36f
2:10 25 29 mph 1016.1mb 36f
1:55 25 32 mph 1016mb 36f
1:40 25 32 mph 1016mb 35f
1:25 24 30 mph 1016.1mb 36f
1:10 31 39 mph 1015.7mb 35f
12:55 34 41 mph 1015.8mb 35f
12:40 31 39 mph 1015.8mb 35f
12:25 32 40 mph 1015.8mb 35f
12:10 30 34 mph 1016mb 36f
11:55 32 40 mph 1015.8mb 35f
11:40 25 32 mph 1016.2mb 35f
11:25 23 30 mph 1016.1mb 35f
11:10 30 39 mph 1015.7mb 35f
10:55 24 33 mph 1015.8mb 35f
10:40 23 32 mph 1015.5mb 34f
10:25 25 33 mph 1015.3mb 33f
10:10 24 33 mph 1015.4mb 33f
9:55 24 32 mph 1015.2mb 32f
9:40 21 30 mph 1015.4mb 32f
9:25 16 21 mph 1015.5mb 31f
9:10 15 17 mph 1015.2mb 30f
8:55 13 16 mph 1015.3mb 30f
8:40 13 16 mph 1015.4mb 29f
8:25 13 16 mph 1015.4mb 29f
8:10 13 15 mph 1015.2mb 29f
7:55 16 18 mph 1015mb 29f
7:40 15 17 mph 1014.9mb 29f
7:25 16 18 mph 1014.3mb 29f
7:10 16 20 mph 1014mb 29f
6:55 17 21 mph 1014mb 29f
6:40 18 22 mph 1014.3mb 29f
6:25 20 23 mph 1013.9mb 29f
6:10 15 16 mph 1014.3mb 29f
5:55 17 20 mph 1014.5mb 29f
5:40 14 16 mph 1014.4mb 29f
5:25 14 16 mph 1014.6mb 29f
5:10 18 21 mph 1014.3mb 29f
4:55 13 16 mph 1014.8mb 29f
4:40 15 16 mph 1015mb 28f
4:25 17 20 mph 1014.7mb 29f
4:10 16 20 mph 1014.9mb 28f
3:55 20 23 mph 1015mb 29f
3:40 18 22 mph 1015.1mb 29f
3:25 20 22 mph 1014.7mb 29f
3:10 20 22 mph 1014.9mb 29f
2:55 20 22 mph 1015mb 29f
2:40 18 21 mph 1015.3mb 29f
2:25 17 21 mph 1015.8mb 29f
2:10 16 20 mph 1016.2mb 29f
1:55 14 15 mph 1016.7mb 29f
1:40 8 10 mph 1016.8mb 29f
1:25 7 8 mph 1017.5mb 29f
1:10 7 8 mph 1017.8mb 28f
12:55 7 8 mph 1018.1mb 28f
12:40 7 8 mph 1018.4mb 28f
12:25 7 9 mph 1018.7mb 28f
12:10 8 9 mph 1019mb 29f
So 03/01 6:55 2 3 mph 1025.9mb 29f
6:40 3 5 mph 1026.2mb 28f
6:25 5 6 mph 1026.6mb 28f
6:10 7
mph
1026.9mb 28f
5:55 6 7 mph 1027.2mb 28f
5:40 7 9 mph 1027.3mb 28f
5:25 9 10 mph 1027.8mb 28f
5:10 9 11 mph 1027.8mb 28f
4:55 9 10 mph 1028.2mb 28f
4:40 8 10 mph 1028.6mb 28f
4:25 6 7 mph 1029mb 27f
4:10 6 7 mph 1029.3mb 27f
3:55 6 7 mph 1029.4mb 27f
3:40 7 8 mph 1030mb 27f
3:25 7 8 mph 1030.3mb 27f
3:10 7 8 mph 1030.6mb 27f
2:55 6 7 mph 1031.1mb 27f
2:40 6 7 mph 1031.7mb 27f
2:25 7 8 mph 1032.2mb 27f
2:10 6 7 mph 1032.7mb 27f
1:55 7 8 mph 1032.8mb 26f
1:40 7
mph
1032.9mb 27f
1:25 7 8 mph 1033.2mb 26f
1:10 8 10 mph 1033.6mb 27f
12:55 8 10 mph 1033.8mb 28f
12:40 7 8 mph 1034.1mb 29f
12:25 3 6 mph 1034.4mb 29f
12:10 3 6 mph 1034.4mb 29f
11:55 5 6 mph 1034.9mb 29f
11:40 7
mph
1035.3mb 29f
11:25 7 8 mph 1035.5mb 28f
11:10 8 9 mph 1035.5mb 28f
10:55 9 11 mph 1035.5mb 28f
10:40 8 10 mph 1035.8mb 28f
10:25 7 9 mph 1036mb 28f
10:10 9 10 mph 1035.9mb 28f
9:55 9 11 mph 1036.1mb 27f
9:40 8 9 mph 1036.6mb 26f
9:25 7 8 mph 1036.7mb 23f
9:10 3 5 mph 1037.2mb 23f
8:55 2 3 mph 1037.7mb 24f
8:40 3 5 mph 1037.8mb 24f
8:25 5 7 mph 1037.9mb 22f
8:10 7 8 mph 1038.1mb 22f
7:55 6 7 mph 1038.1mb 22f
7:40 5 6 mph 1038.1mb 20f
7:25 6 7 mph 1038.1mb 20f
7:10 7 8 mph 1038.2mb 19f
6:55 8 9 mph 1038.3mb 19f
6:40 8 9 mph 1038.1mb 18f
6:25 8 9 mph 1038.3mb 18f
6:10 7 8 mph 1038.4mb 18f
5:55 6 7 mph 1038.3mb 19f
5:40 5
mph
1038.1mb 18f
5:25 3 5 mph 1038.1mb 18f
5:10 5 6 mph 1038.2mb 18f
4:55 6 7 mph 1038.2mb 18f
4:40 5 7 mph 1038.2mb 19f
4:25  -  1 mph 1038.3mb 19f
4:10 1 2 mph 1038.2mb 18f
3:55 2 3 mph 1038.1mb 18f
3:40 3 5 mph 1038.1mb 18f
3:25 8 9 mph 1038.3mb 19f
3:10 5 6 mph 1038.6mb 19f
2:55 7 8 mph 1038.5mb 19f
2:40 8 9 mph 1038.6mb 19f
2:25 6
mph
1038.5mb 19f
2:10 6 7 mph 1038.5mb 20f
1:55 6 7 mph 1038.5mb 20f
1:40 5 6 mph 1038.7mb 21f
1:25 6
mph
1038.9mb 21f
1:10 5 6 mph 1038.9mb 22f
12:55 6
mph
1039mb 22f
12:40 7 8 mph 1038.9mb 22f
12:25 7 9 mph 1039mb 21f
12:10 6 7 mph 1039.2mb 22f
Sa 02/28 6:55 13 15 mph 1039.2mb 26f
6:40 13 15 mph 1039.2mb 26f
6:10 16 20 mph 1039.1mb 26f
5:55 17 20 mph 1038.9mb 26f
5:40 16 21 mph 1038.8mb 26f
5:25 20 22 mph 1038.5mb 26f
5:10 20 22 mph 1038.4mb 26f
4:55 20 22 mph 1038.3mb 26f
4:40 21 23 mph 1038.4mb 26f
4:25 21 24 mph 1038.4mb 26f
4:10 21 23 mph 1038.3mb 26f
3:55 21 23 mph 1038.3mb 26f
3:40 20 21 mph 1038.4mb 26f
3:25 20 21 mph 1038.4mb 26f
3:10 20 22 mph 1038.4mb 25f
2:55 18 21 mph 1038.5mb 25f
2:40 17 20 mph 1038.8mb 25f
2:25 15 17 mph 1038.9mb 25f
2:10 15 16 mph 1039mb 25f
1:55 14 16 mph 1039mb 25f
1:40 14 16 mph 1039.3mb 25f